TimeHST,TemperatureF,Dew PointF,Humidity,Sea Level PressureIn,VisibilityMPH,Wind Direction,Wind SpeedMPH,Gust SpeedMPH,PrecipitationIn,Events,Conditions,WindDirDegrees,DateUTC
12:57 AM,-9999,-9999,N/A,29.94,9.0,ESE,6.9,-,N/A,,Partly Cloudy,110,2013-12-07 10:57:00
1:57 AM,-9999,-9999,N/A,29.93,9.0,ESE,5.8,-,N/A,,Mostly Cloudy,120,2013-12-07 11:57:00
2:07 AM,-9999,-9999,N/A,29.94,6.2,ESE,4.6,-,N/A,,Scattered Clouds,110,2013-12-07 12:07:00
2:48 AM,-9999,-9999,N/A,29.94,6.2,ESE,3.5,-,N/A,,Mostly Cloudy,110,2013-12-07 12:48:00
2:55 AM,-9999,-9999,N/A,29.94,6.2,ESE,4.6,-,N/A,,Scattered Clouds,110,2013-12-07 12:55:00
2:57 AM,-9999,-9999,N/A,29.92,9.0,East,4.6,-,N/A,,Scattered Clouds,100,2013-12-07 12:57:00
3:14 AM,-9999,-9999,N/A,29.93,6.2,ESE,5.8,-,N/A,,Mostly Cloudy,110,2013-12-07 13:14:00
3:30 AM,-9999,-9999,N/A,29.93,6.2,East,4.6,-,N/A,,Mostly Cloudy,100,2013-12-07 13:30:00
3:57 AM,-9999,-9999,N/A,29.92,9.0,East,3.5,-,N/A,,Scattered Clouds,100,2013-12-07 13:57:00
4:57 AM,71.6,64.9,79,29.93,9.0,SE,3.5,-,N/A,,Clear,130,2013-12-07 14:57:00
5:57 AM,71.6,64.0,77,29.93,9.0,Calm,Calm,-,N/A,,Clear,0,2013-12-07 15:57:00
6:57 AM,71.6,63.0,74,29.94,8.0,Calm,Calm,-,N/A,,Clear,0,2013-12-07 16:57:00
7:57 AM,71.6,63.0,74,29.96,8.0,Calm,Calm,-,N/A,,Clear,0,2013-12-07 17:57:00
8:57 AM,71.6,68.0,88,29.96,9.0,Calm,Calm,-,N/A,,Partly Cloudy,0,2013-12-07 18:57:00
9:57 AM,74.1,69.1,84,29.96,9.0,SE,3.5,-,N/A,,Mostly Cloudy,140,2013-12-07 19:57:00
10:07 AM,-9999,-9999,N/A,29.98,6.2,ENE,3.5,-,N/A,,Scattered Clouds,60,2013-12-07 20:07:00
10:27 AM,75.2,68.0,78,29.98,6.2,NE,5.8,-,N/A,,Mostly Cloudy,40,2013-12-07 20:27:00
10:54 AM,75.2,68.0,78,29.97,6.2,NNE,5.8,-,N/A,,Partly Cloudy,30,2013-12-07 20:54:00
10:57 AM,74.3,68.0,81,29.96,7.0,NNE,4.6,-,N/A,,Partly Cloudy,20,2013-12-07 20:57:00
11:04 AM,-9999,-9999,N/A,29.97,6.2,NE,4.6,-,N/A,,Mostly Cloudy,40,2013-12-07 21:04:00
11:12 AM,-9999,-9999,N/A,29.97,6.2,NE,4.6,-,N/A,,Scattered Clouds,50,2013-12-07 21:12:00
11:57 AM,77.5,66.0,68,29.94,7.0,Variable,4.6,-,N/A,,Partly Cloudy,0,2013-12-07 21:57:00
12:57 PM,77.7,66.9,69,29.91,8.0,ESE,8.1,-,N/A,,Clear,110,2013-12-07 22:57:00
1:57 PM,80.1,64.9,60,29.90,10.0,East,8.1,-,N/A,,Clear,100,2013-12-07 23:57:00
2:57 PM,80.1,63.0,56,29.89,9.0,East,6.9,-,N/A,,Clear,90,2013-12-08 00:57:00
3:57 PM,79.3,64.9,61,29.90,10.0,East,5.8,-,N/A,,Clear,100,2013-12-08 01:57:00
4:57 PM,77.0,64.9,66,29.91,10.0,ESE,4.6,-,N/A,,Clear,110,2013-12-08 02:57:00
5:57 PM,77.0,64.9,66,29.94,9.0,ESE,3.5,-,N/A,,Clear,110,2013-12-08 03:57:00
6:57 PM,77.0,66.0,69,29.96,9.0,ESE,4.6,-,N/A,,Scattered Clouds,120,2013-12-08 04:57:00
7:04 PM,-9999,-9999,N/A,29.97,6.2,ESE,5.8,-,N/A,,Mostly Cloudy,120,2013-12-08 05:04:00
7:13 PM,73.4,66.2,78,29.97,6.2,ESE,5.8,-,N/A,,Scattered Clouds,120,2013-12-08 05:13:00
7:57 PM,74.1,66.9,78,29.97,9.0,ESE,4.6,-,N/A,,Scattered Clouds,120,2013-12-08 05:57:00
8:57 PM,74.1,66.9,78,29.99,9.0,Calm,Calm,-,N/A,,Scattered Clouds,0,2013-12-08 06:57:00
9:18 PM,-9999,-9999,N/A,30.00,6.2,Calm,Calm,-,N/A,,Mostly Cloudy,0,2013-12-08 07:18:00
9:28 PM,71.6,66.2,83,30.00,6.2,Calm,Calm,-,N/A,,Scattered Clouds,0,2013-12-08 07:28:00
9:57 PM,72.1,66.9,84,29.99,10.0,Calm,Calm,-,N/A,,Scattered Clouds,0,2013-12-08 07:57:00
10:57 PM,72.1,66.0,81,29.98,9.0,Calm,Calm,-,N/A,,Scattered Clouds,0,2013-12-08 08:57:00
11:57 PM,72.1,66.0,81,29.97,9.0,Calm,Calm,-,N/A,,Clear,0,2013-12-08 09:57:00